RH
91 93 97 98 98 96 97 98 92 84 84 87 87 86 88 85 81 78 70 61 57 56 56 51 51 66 70 55 51 58 65 79 92 88 78 75 74 74 78 79 80 81 77 74 80 89 82 54 28 30 55 75 83 91 97 101 98 91 89 92 88 86 87 88 90 93 94 94 94 93 92 93 93 92
93 96 97 98 98 96 96 93 84 80 84 84 79 80 84 85 89 93 88 79 69 62 64 59 51 58 67 71 70 64 69 80 84 83 77 71 73 72 70 77 80 79 81 79 78 88 95 80 45 25 35 55 70 85 94 99 101 95 93 95 90 88 89 88 90 92 93 95 97 98 98 96 97 96
92 95 96 98 97 95 92 88 81 80 83 83 82 84 81 80 88 92 92 94 82 68 71 68 58 62 68 72 72 65 71 79 73 75 82 77 77 77 70 70 76 78 80 83 83 86 94 94 67 33 24 32 48 72 89 94 99 100 97 96 96 94 92 90 92 93 93 95 96 98 99 99 100 99
95 96 98 97 97 97 94 90 87 83 82 82 85 88 85 82 86 85 87 96 82 64 73 77 65 67 76 79 80 76 72 68 60 63 75 77 76 81 78 69 69 77 81 83 88 88 89 96 83 48 23 17 25 49 76 88 93 98 96 92 94 96 94 92 93 93 92 92 94 95 98 99 98 99
98 98 100 99 98 98 96 92 89 88 91 92 89 87 82 78 81 86 90 94 84 68 71 78 68 62 67 74 82 88 87 79 68 62 63 65 66 72 79 74 67 74 82 82 85 88 89 94 93 68 32 15 15 25 50 74 86 93 94 91 94 98 97 97 97 94 90 89 92 94 94 95 96 97
98 97 98 100 99 98 95 88 80 81 88 94 93 89 85 81 83 89 90 89 90 86 75 67 65 62 63 66 68 76 91 94 83 70 59 53 54 58 69 76 74 73 79 82 82 87 93 95 97 83 46 20 16 17 26 45 64 80 90 92 95 99 99 100 100 97 92 89 89 92 93 94 94 95
96 96 99 100 100 100 99 92 84 81 79 79 82 81 80 84 86 86 86 85 88 91 78 59 59 65 63 65 68 70 84 97 90 79 69 54 46 49 56 69 79 79 79 84 84 87 97 99 98 92 61 27 19 20 19 23 32 49 69 85 94 98 98 99 99 99 97 93 90 89 91 92 92 93
98 99 102 98 94 95 98 97 97 94 85 79 80 79 81 89 89 83 83 83 81 87 82 60 54 59 56 63 78 82 88 95 84 74 78 72 62 60 58 62 75 82 84 89 91 92 99 101 100 97 76 41 23 25 29 31 30 29 39 59 79 93 99 99 99 100 99 97 93 89 88 88 89 92
98 99 93 83 76 82 89 91 93 95 90 85 86 90 94 95 86 75 75 77 79 87 84 62 48 53 59 71 87 93 96 98 85 74 80 86 84 83 77 72 75 81 84 91 98 99 99 100 101 100 87 60 41 40 49 56 56 46 35 35 48 69 84 91 94 98 100 100 98 94 91 90 90 91
77 77 74 71 70 75 80 82 85 89 89 88 90 94 94 87 81 78 76 76 83 89 84 68 52 51 63 78 86 90 97 101 96 90 89 91 93 91 86 83 82 83 84 90 97 101 100 99 100 101 93 72 56 56 65 73 75 68 52 36 31 38 51 60 68 77 87 95 99 99 97 96 96 93
70 71 74 77 77 76 79 80 82 88 93 92 90 92 89 82 84 90 87 82 85 87 83 77 68 62 71 85 88 89 97 100 100 99 97 97 98 94 87 82 81 83 86 89 94 98 101 101 99 101 98 81 63 57 66 78 83 80 69 52 38 32 33 36 41 47 58 72 84 93 96 97 98 97
89 91 92 91 87 82 81 81 80 83 91 95 93 92 92 89 88 89 89 88 90 93 93 90 86 83 88 96 97 96 98 100 100 99 97 97 98 98 94 87 84 87 89 91 94 95 97 100 99 100 101 94 76 63 66 79 87 87 82 71 56 45 38 34 34 35 40 47 58 71 79 82 87 93
99 100 100 99 96 90 80 76 77 79 84 92 96 95 92 90 88 87 89 94 95 97 98 94 92 97 97 93 91 92 95 97 100 100 97 98 99 100 100 97 95 95 96 96 97 96 96 98 100 98 100 101 94 81 76 83 89 90 88 83 73 60 50 42 38 36 36 37 41 48 53 55 61 72
100 100 101 100 99 93 79 75 83 87 81 81 88 93 90 88 90 93 95 99 100 100 99 95 95 100 99 89 82 85 93 98 99 101 100 99 100 100 99 101 100 99 100 100 99 100 99 99 100 98 95 97 100 95 88 88 90 89 87 84 78 71 64 58 54 50 47 45 43 43 43 42 45 51
100 100 100 100 99 95 87 85 92 93 80 71 75 84 86 82 86 94 99 100 100 100 99 97 95 96 96 93 85 84 94 100 99 99 101 100 100 101 100 100 100 99 100 101 100 100 101 100 100 100 96 95 97 97 94 91 88 83 81 80 79 78 75 73 73 71 67 63 59 56 54 50 45 43
100 100 100 100 100 97 93 92 95 94 81 68 65 73 77 76 77 81 88 95 100 101 100 97 95 92 92 95 89 82 88 100 101 99 101 100 98 100 100 99 100 100 100 100 100 100 100 100 100 100 100 99 99 98 97 96 91 84 80 81 83 84 84 86 87 87 84 80 76 72 69 67 59 49
100 100 100 100 100 99 93 89 93 96 88 76 69 68 69 70 70 69 72 78 86 92 94 94 93 92 92 94 93 85 81 91 101 100 99 100 99 99 101 100 100 100 100 100 101 100 100 100 100 100 100 100 100 100 99 99 98 95 92 91 93 93 92 93 93 92 92 90 87 84 80 79 77 66
99 97 98 98 98 99 97 93 94 95 92 88 87 80 72 67 65 64 66 68 72 78 82 84 86 91 93 92 94 92 85 86 97 102 99 99 100 100 100 100 100 100 100 100 100 100 99 99 100 100 99 98 98 99 100 100 100 100 99 97 97 97 96 95 94 93 93 91 90 90 87 83 84 81
95 85 81 82 85 91 97 100 99 97 94 93 94 90 81 74 69 66 64 64 67 71 74 75 78 84 91 90 88 91 90 86 91 100 101 99 100 100 100 100 99 99 100 100 100 99 98 97 98 98 96 96 97 97 97 99 99 100 100 98 97 97 96 96 96 95 95 93 90 89 89 86 87 89
84 73 70 71 73 78 88 94 96 97 96 94 93 93 90 85 83 81 76 71 72 74 75 76 77 79 85 86 83 85 90 90 89 93 98 98 97 97 99 100 98 95 95 97 98 99 99 97 98 98 95 94 96 95 93 94 95 96 97 97 96 95 94 94 95 95 96 97 96 93 91 89 89 91
79 73 72 73 71 70 74 79 83 89 96 95 91 93 94 91 91 92 89 85 84 82 80 78 78 79 81 81 80 81 87 93 91 89 93 96 95 95 98 100 99 95 92 92 94 97 98 96 97 100 98 95 95 94 92 91 92 93 94 95 94 93 93 93 94 95 97 98 99 98 98 96 94 94
87 84 82 83 83 78 73 72 73 77 89 96 92 90 95 97 95 92 91 90 87 87 89 85 81 81 82 81 83 83 83 87 88 84 88 96 98 98 99 100 100 98 92 90 92 96 95 91 92 98 100 98 96 95 92 91 91 91 91 92 92 90 90 92 93 93 94 96 98 98 98 98 98 98
97 97 96 96 96 91 83 81 80 80 86 95 94 90 93 99 99 96 93 90 88 91 95 92 86 86 85 82 82 84 84 84 82 79 85 95 99 100 100 99 101 100 93 89 91 96 96 90 89 94 97 96 96 96 93 89 88 88 88 88 88 87 87 89 91 92 94 96 98 98 97 95 97 100
100 100 100 100 100 99 96 95 96 95 95 97 95 90 90 94 99 100 97 92 89 91 95 94 91 90 88 85 82 84 88 87 81 78 85 91 95 100 101 99 99 100 96 91 89 94 98 94 90 91 92 91 90 90 88 85 84 85 86 86 86 86 85 85 87 90 96 100 99 99 100 98 98 99
100 101 100 98 98 99 100 99 99 100 100 100 99 95 89 86 87 94 100 98 92 90 93 97 98 93 90 91 90 88 90 89 81 78 81 83 86 95 100 99 99 99 97 92 87 91 98 98 92 89 91 93 90 85 85 87 85 85 88 88 88 88 87 86 85 87 93 100 100 99 100 100 99 97
99 100 99 98 97 98 99 98 97 99 100 99 101 100 97 92 87 89 96 100 99 96 93 94 98 97 95 96 96 93 92 88 79 75 79 81 81 85 91 96 99 99 97 91 84 87 96 99 95 89 89 94 93 86 84 86 86 86 89 89 89 90 87 86 86 86 89 96 100 101 100 99 100 99
95 100 100 99 99 100 100 98 98 100 101 100 99 97 96 99 98 93 91 92 96 99 97 96 97 96 94 96 97 96 92 86 78 77 81 83 80 79 84 90 94 96 98 93 84 85 93 99 95 89 88 93 93 86 82 83 83 84 85 86 88 89 86 84 84 85 87 91 95 99 100 100 100 100
98 101 100 99 100 100 100 100 100 99 98 98 99 96 94 98 101 99 94 88 87 93 99 100 100 96 92 91 91 89 85 81 81 83 84 83 82 83 86 91 93 95 98 97 91 88 91 94 91 87 89 93 94 90 87 84 81 79 77 77 78 79 78 79 79 80 82 84 87 92 97 100 100 100
100 100 100 100 100 96 95 98 99 98 95 91 92 96 99 99 99 101 99 92 88 92 98 99 100 99 91 84 84 86 87 86 87 88 85 84 87 88 88 92 97 99 99 99 98 95 95 94 91 88 92 96 95 92 86 79 73 70 69 68 67 67 69 69 69 71 73 75 78 82 88 94 98 99
100 100 100 99 94 90 92 94 95 98 98 93 90 93 95 94 93 96 100 99 94 95 96 95 95 95 88 82 86 92 91 88 87 88 86 87 90 89 85 86 93 99 100 99 99 100 100 99 94 91 94 97 95 90 82 74 69 67 68 69 68 66 66 66 66 68 69 70 73 75 77 82 89 95
97 96 97 99 97 96 95 89 85 88 93 95 96 95 91 86 82 84 90 95 94 93 95 94 91 89 89 89 91 92 88 86 88 90 89 91 94 93 88 86 91 98 100 100 100 100 100 99 94 89 89 90 89 87 83 79 77 74 73 75 74 70 68 68 69 72 73 75 77 76 73 73 79 87
96 95 97 100 100 99 96 90 88 91 94 97 99 96 91 88 84 80 82 90 94 93 94 96 92 89 90 93 91 88 88 91 95 94 93 94 93 91 90 93 97 100 100 100 100 100 100 100 96 91 89 87 87 88 88 88 88 87 84 82 80 77 74 71 70 71 75 80 82 81 78 75 76 82
97 96 99 100 98 97 97 96 95 94 95 97 96 94 95 97 91 83 81 88 95 94 91 93 93 89 90 94 94 92 94 97 98 98 98 97 91 86 88 95 100 100 99 100 101 100 101 100 94 90 90 90 89 90 92 96 98 98 96 91 85 81 79 76 74 75 77 79 80 80 80 78 77 79
98 97 101 100 98 97 95 94 91 88 92 96 93 93 99 100 94 88 86 88 93 92 91 93 93 90 91 96 97 97 99 100 98 97 95 93 90 88 91 96 100 99 94 92 93 95 97 100 98 93 93 93 90 87 90 97 100 99 100 98 93 90 89 85 83 84 84 84 83 81 80 78 75 75
97 99 101 100 99 99 97 96 96 94 95 97 94 92 94 93 92 93 91 90 93 94 95 96 94 93 96 98 98 99 99 97 97 97 94 93 94 95 95 97 101 98 87 79 79 82 86 93 98 99 98 97 96 93 93 97 98 97 99 101 99 98 97 91 86 88 89 89 89 88 84 80 76 74
97 100 101 99 100 101 99 100 101 99 99 99 98 95 91 89 93 97 93 93 98 99 98 97 97 98 99 99 100 100 95 90 92 94 93 94 97 99 98 99 102 99 89 80 79 81 84 89 92 96 97 97 98 98 95 91 91 94 99 98 93 89 88 85 83 84 86 87 90 92 89 86 81 77
99 101 101 100 100 101 100 100 100 100 100 100 100 99 96 95 99 100 97 97 100 100 98 99 99 100 100 99 101 98 89 86 92 96 94 93 92 93 93 94 96 96 92 88 88 88 91 94 95 97 99 99 99 99 94 87 86 89 93 93 88 82 81 82 82 81 81 82 84 86 88 88 86 84
101 100 100 100 100 99 99 100 100 100 101 100 99 100 100 99 100 101 99 99 100 100 100 100 99 100 100 100 100 93 83 86 95 99 98 94 90 88 89 89 88 89 89 90 91 92 95 99 100 99 100 100 100 101 98 93 87 82 82 87 90 88 86 87 86 85 84 83 83 84 86 88 88 87
100 100 101 100 99 98 97 97 97 98 99 100 100 100 100 100 100 100 100 100 100 100 100 100 100 101 100 100 100 95 91 94 100 100 99 98 96 96 96 94 93 94 95 95 96 97 99 101 100 99 100 100 100 100 100 99 94 85 82 89 96 97 95 94 93 93 92 91 90 90 91 92 90 88
99 100 101 100 100 101 100 98 96 95 94 95 96 98 99 100 100 100 100 100 100 100 100 100 99 100 100 100 100 99 99 100 100 99 100 100 100 100 100 99 99 99 99 100 100 100 100 100 100 100 100 100 100 100 99 101 100 96 94 96 100 101 100 98 98 99 97 95 95 94 95 97 96 94
100 100 100 100 100 101 101 101 99 95 92 90 89 90 92 93 95 97 99 100 100 100 100 100 100 99 100 100 100 99 100 99 99 100 101 100 100 100 100 100 100 100 100 100 100 100 100 100 100 100 100 99 100 100 100 100 99 98 99 99 99 99 100 98 97 98 99 98 99 98 96 96 95 93
99 99 100 100 101 100 100 100 97 95 93 90 85 84 84 85 86 87 89 92 96 97 97 98 99 99 100 100 100 101 101 100 100 101 101 100 100 101 100 99 100 100 100 100 100 100 100 100 100 100 100 100 100 100 99 96 95 95 98 99 98 98 99 98 98 100 101 101 100 98 94 92 91 87
99 99 98 98 99 99 100 100 99 98 97 93 86 79 76 76 78 79 80 80 81 83 86 88 89 90 91 92 93 93 95 96 97 98 99 99 100 99 100 100 100 99 100 100 100 100 100 100 100 100 99 98 99 98 96 94 95 98 100 100 99 98 97 96 97 98 97 95 93 90 87 85 84 80
96 95 94 93 93 93 94 96 99 100 97 94 89 83 75 68 65 67 69 69 67 66 66 67 70 72 73 73 75 78 79 80 81 82 84 86 87 88 89 91 92 93 97 99 99 98 98 97 97 98 98 98 99 99 99 98 99 101 101 100 101 100 95 91 89 87 85 83 81 79 78 78 77 75
92 92 94 94 93 90 85 84 90 96 98 96 95 94 89 78 66 56 52 51 49 48 45 43 44 47 48 50 56 63 67 71 74 75 75 76 78 80 83 83 84 88 93 97 97 97 97 97 98 99 100 100 100 100 100 100 100 100 100 98 98 97 94 90 85 82 78 74 71 71 73 74 74 74
Wind_Speed
29 29 30 31 33 34 33 34 35 35 36 36 36 34 33 29 28 28 28 28 28 28 30 33 32 32 34 39 46 48 47 46 44 40 43 50 54 55 55 54 55 58 60 60 56 52 50 50 52 53 51 50 49 42 34 33 38 40 41 42 42 40 40 40 38 35 34 32 31 30 29 31 30 29
28 29 30 30 31 32 33 34 35 34 34 37 40 40 39 37 35 34 31 29 29 26 26 29 31 30 31 33 37 41 43 43 44 41 41 47 52 54 55 54 53 55 58 61 59 55 51 50 51 53 53 51 50 48 42 35 35 39 40 39 39 41 41 40 39 38 37 35 33 33 33 32 32 31
29 29 30 30 31 31 31 31 32 33 33 34 36 38 40 40 39 38 35 33 35 33 27 26 27 25 26 29 32 35 38 41 45 42 38 40 46 51 54 54 53 53 56 59 61 58 54 52 52 53 54 53 51 51 49 43 37 37 40 39 38 39 39 39 39 39 38 37 36 35 35 34 34 32
29 29 29 30 30 30 30 30 30 31 32 34 35 35 38 39 37 38 37 36 40 41 35 31 30 26 24 25 28 31 36 40 44 45 41 37 38 42 50 55 54 53 55 57 60 60 57 55 54 54 54 54 53 51 51 50 44 39 39 41 40 40 41 41 40 39 38 38 38 37 36 36 36 34
27 28 29 29 30 30 30 31 31 32 32 33 35 36 38 39 36 36 37 37 39 42 40 37 37 35 31 30 30 29 32 36 39 43 44 41 38 37 43 51 55 54 54 56 58 59 59 58 56 56 54 54 54 53 51 51 50 45 41 40 39 39 41 41 40 39 39 39 39 38 38 38 37 37
28 29 29 29 30 30 32 33 34 35 35 34 34 37 38 38 37 36 37 37 38 38 38 38 36 35 35 35 34 32 32 33 34 37 42 44 42 39 38 44 52 55 55 56 57 58 58 58 57 56 55 54 53 53 53 52 51 51 48 45 41 40 41 41 40 40 40 39 40 39 39 39 38 38
28 28 28 28 29 29 30 32 32 34 36 36 37 38 38 38 38 37 36 37 38 36 36 38 36 33 34 33 33 33 31 30 30 33 37 40 42 42 39 40 45 51 55 56 58 59 58 57 57 57 57 55 53 52 53 53 52 52 52 51 48 44 42 41 41 40 41 41 41 41 41 40 40 39
24 24 25 28 28 28 29 30 30 31 32 33 35 37 38 39 38 37 35 36 39 37 35 38 37 35 35 34 30 28 29 31 33 34 35 36 39 41 42 41 42 45 50 54 57 58 58 58 58 58 58 58 55 51 50 51 52 51 52 53 53 50 47 44 42 41 42 42 42 42 42 43 43 41
26 26 28 30 30 28 29 30 31 31 30 30 31 31 33 35 35 35 35 36 38 37 35 36 39 37 34 32 28 24 25 30 34 36 35 35 37 39 40 42 42 42 46 50 54 55 57 58 58 58 59 61 60 55 49 48 50 50 50 51 53 53 51 49 46 44 43 42 42 42 43 43 43 43
31 31 31 31 30 29 29 29 30 29 27 28 28 27 28 30 30 31 33 34 36 37 34 33 36 37 34 33 32 27 24 24 28 33 33 33 35 37 39 40 40 40 42 45 49 52 54 56 57 57 57 59 62 61 56 51 50 50 49 49 50 52 53 52 50 48 46 45 44 44 44 43 41 41
29 29 28 28 29 29 28 27 27 26 25 26 26 26 26 27 28 28 29 31 33 35 31 27 30 34 36 36 33 28 25 23 25 31 32 31 34 37 38 39 40 39 40 41 44 47 50 52 53 53 55 56 59 61 60 56 53 51 50 48 47 47 49 51 50 50 49 48 47 46 46 44 42 41
22 22 22 23 25 26 26 26 26 25 23 23 24 24 24 25 27 26 26 27 28 29 26 24 26 28 27 27 26 24 24 25 27 30 32 31 34 35 36 38 39 38 38 39 40 42 45 47 47 47 50 54 58 59 59 58 57 55 53 52 50 47 46 46 47 48 49 49 49 48 48 46 44 43
20 20 19 20 21 24 26 26 25 24 22 22 23 23 23 24 25 24 23 23 23 24 23 22 23 21 17 17 20 20 21 24 28 29 29 29 30 30 30 32 34 36 37 37 38 39 41 44 45 45 46 51 56 59 59 57 57 57 55 54 53 51 47 45 44 45 46 47 48 48 49 47 45 43
20 20 20 18 18 22 25 24 23 23 23 23 24 24 23 23 22 21 20 19 18 18 18 18 19 18 15 14 16 16 16 19 25 27 27 26 25 25 25 27 30 33 35 35 35 36 37 39 42 44 45 47 51 56 58 57 55 55 55 54 54 53 50 46 44 44 44 45 45 45 46 46 45 44
20 21 21 19 17 20 23 22 21 22 23 24 25 25 24 23 23 21 19 17 14 14 14 14 14 14 13 12 12 13 13 14 19 23 23 22 23 24 25 27 28 30 31 32 32 33 35 36 39 41 43 45 47 51 54 56 54 51 50 51 52 53 52 49 46 44 43 44 45 45 45 45 44 44
20 21 20 18 16 17 20 20 19 20 21 22 25 26 25 24 24 23 22 19 16 14 13 11 11 11 11 11 10 12 14 14 15 15 15 16 19 21 23 25 25 25 27 29 30 31 33 35 36 38 40 41 43 46 49 52 52 51 49 49 50 50 51 50 48 45 43 43 44 45 46 46 45 44
21 21 20 18 14 10 13 16 17 17 18 19 22 25 26 26 26 25 24 22 21 19 16 14 12 10 10 11 11 11 12 15 16 15 13 13 14 14 16 19 19 19 23 27 28 29 31 33 33 34 34 35 35 37 40 41 44 45 47 47 46 46 47 47 47 46 45 44 44 45 46 46 46 45
21 20 18 18 13 8 8 12 14 15 15 16 18 21 24 27 28 27 26 25 24 22 21 19 17 14 12 12 12 11 11 12 15 16 14 13 12 11 11 12 13 14 17 21 23 24 26 27 28 28 29 29 29 30 31 31 32 34 36 37 38 39 40 41 42 43 44 45 45 46 45 45 45 46
21 19 17 17 16 13 11 10 11 13 13 14 16 18 21 24 26 27 28 27 26 24 23 22 20 18 16 14 13 12 11 11 12 14 14 13 12 11 10 9 10 11 11 13 18 19 20 21 22 22 23 23 24 25 26 27 27 28 29 30 30 31 33 35 37 38 39 41 42 43 43 43 44 45
20 19 17 17 17 17 16 14 13 14 14 15 16 17 18 19 20 22 23 24 24 24 23 23 22 21 20 18 16 14 13 13 12 12 12 13 14 13 12 11 12 11 10 10 12 14 15 16 17 19 20 20 20 21 22 23 25 25 26 27 27 27 28 30 32 33 34 35 36 36 37 38 38 41
16 16 16 16 18 19 20 20 19 17 15 15 16 16 17 18 19 19 19 20 21 22 22 22 22 22 23 22 20 17 16 15 14 13 12 13 13 13 13 13 14 14 13 11 12 13 13 14 15 17 18 18 19 20 20 21 22 23 24 25 25 25 26 26 28 30 31 31 31 32 33 34 33 35
13 15 16 16 18 19 20 20 21 20 18 17 17 17 17 18 19 20 20 19 19 19 20 21 22 22 22 23 22 20 17 15 15 15 13 11 11 11 12 11 12 13 15 15 14 14 13 12 14 16 16 17 18 19 20 20 21 21 22 22 22 23 23 25 26 27 28 28 28 29 31 32 33 34
14 15 16 17 18 19 18 18 19 18 18 19 19 19 18 17 17 18 19 20 20 19 19 20 21 22 22 23 23 22 19 17 17 16 14 11 10 11 11 10 10 10 14 18 18 17 15 13 13 16 18 17 16 17 20 21 21 21 21 21 21 21 22 24 25 26 27 27 28 29 29 30 32 35
15 16 17 17 17 17 17 17 18 18 19 19 20 21 22 21 18 16 17 19 19 19 19 19 20 21 21 22 23 22 21 20 18 17 15 13 11 10 11 12 13 11 11 14 17 20 18 14 14 18 19 16 14 17 20 20 20 20 20 21 21 21 22 23 25 27 29 29 29 30 30 29 31 36
15 15 15 15 15 16 16 16 17 18 19 20 22 23 25 25 24 20 18 17 16 18 19 18 18 20 20 20 20 20 21 21 20 18 17 14 12 12 12 13 13 11 9 9 13 19 21 17 16 19 18 12 11 15 18 19 19 19 19 20 21 22 23 24 25 27 31 32 30 30 30 28 28 33
16 16 16 16 16 16 16 17 17 17 17 18 21 23 23 24 25 25 23 19 15 14 16 18 18 18 19 19 18 18 19 21 21 19 18 15 14 15 14 13 12 12 11 9 9 15 21 20 18 19 19 15 13 14 16 17 18 18 18 20 21 23 24 25 26 27 31 35 33 32 31 29 26 28
15 15 15 15 15 16 16 17 17 17 17 18 19 20 20 20 22 25 26 24 20 16 15 16 18 18 19 19 19 19 19 19 20 20 18 16 15 15 16 16 15 14 13 11 10 12 19 23 21 20 19 19 19 17 15 15 16 17 18 18 19 21 22 23 25 26 28 33 35 34 33 32 30 28
12 13 14 14 14 14 15 16 16 16 17 18 18 18 19 20 20 21 24 25 24 20 17 16 17 18 19 20 20 19 18 18 19 20 19 17 15 15 16 18 19 18 15 14 12 11 16 22 23 20 18 19 20 20 17 16 16 16 17 18 19 20 21 21 23 25 26 29 32 34 35 35 34 31
12 12 13 13 12 12 13 13 14 15 15 15 16 16 17 18 19 19 21 23 23 22 20 18 17 18 19 19 18 18 17 17 17 18 19 19 17 16 17 19 21 21 19 18 15 11 13 18 19 17 17 19 18 17 15 15 15 14 14 16 18 19 21 23 24 25 26 27 29 31 34 36 37 36
10 11 12 12 13 13 12 11 9 10 11 12 13 14 15 17 18 19 20 21 22 23 22 20 19 18 17 16 16 16 16 17 17 18 19 19 19 18 17 19 22 22 21 21 19 14 14 16 15 14 15 18 17 15 13 13 14 14 13 14 16 16 18 21 24 25 27 28 29 30 32 34 36 37
9 9 9 9 9 8 6 5 5 5 6 8 10 12 14 15 17 18 19 19 20 22 22 21 19 16 14 13 15 16 17 17 17 18 17 18 19 18 18 19 22 22 21 22 22 18 16 16 16 15 16 17 17 16 15 14 15 16 15 15 16 16 16 18 20 23 25 27 29 31 32 33 33 34
11 10 9 5 3 3 4 5 6 6 7 7 7 10 13 14 16 17 18 18 17 19 21 20 18 16 15 15 15 15 15 16 17 17 16 16 17 18 18 19 22 22 22 23 23 21 17 16 17 17 17 18 18 18 18 18 18 18 19 18 18 18 18 18 18 19 21 24 26 29 31 31 31 32
13 11 8 4 3 4 5 6 7 7 7 7 7 9 8 8 11 15 17 16 16 18 19 18 17 16 15 15 15 14 14 16 17 17 17 16 17 18 19 19 19 19 19 20 20 20 19 18 18 19 19 19 19 19 20 20 19 19 20 20 20 20 21 22 21 20 21 22 24 25 27 29 30 31
11 8 5 4 4 5 5 5 6 6 5 5 5 6 4 3 8 12 14 14 14 16 17 17 17 16 13 14 15 15 14 14 14 15 16 17 18 18 18 17 17 17 17 16 17 18 18 19 19 20 20 20 20 21 22 22 21 20 20 21 22 22 23 23 23 22 22 23 23 25 26 27 28 29
8 8 6 5 6 7 5 4 3 3 2 2 2 4 5 5 6 7 10 12 12 14 16 16 15 14 13 14 16 16 14 12 12 12 14 16 17 16 16 17 18 18 17 16 16 16 17 18 19 19 20 21 22 25 26 26 25 24 24 25 26 26 26 25 24 23 23 24 25 26 27 28 28 28
9 10 9 9 12 13 12 10 6 3 1 1 2 3 5 5 4 4 7 10 11 13 15 14 14 14 14 15 17 17 15 14 14 12 13 16 17 16 15 16 18 19 18 18 17 16 17 19 20 20 21 22 23 25 27 28 27 27 28 29 29 29 28 27 26 26 25 26 27 28 29 30 30 29
10 11 11 13 15 17 17 15 12 9 6 2 2 4 5 5 4 4 6 8 10 12 13 12 13 14 14 15 17 17 15 15 15 14 14 16 18 18 17 16 17 18 19 20 20 19 18 17 18 19 20 21 23 25 26 26 26 26 27 28 29 28 28 28 28 29 29 29 29 30 31 31 31 31
11 11 12 14 15 15 17 17 16 14 12 8 6 5 5 5 5 5 6 6 8 10 11 10 12 13 14 15 17 16 15 15 15 14 14 15 17 19 19 20 20 21 22 22 22 21 19 18 18 18 19 21 23 24 24 24 25 24 24 24 26 27 27 28 28 29 29 30 31 32 32 33 32 32
11 11 13 14 14 14 15 15 16 16 15 13 11 9 7 5 5 5 5 4 5 6 7 7 8 11 14 14 14 14 14 14 14 14 14 15 15 16 18 19 19 20 20 20 20 21 20 20 19 19 20 21 23 24 25 25 26 24 23 23 25 27 27 27 28 28 29 30 30 31 32 34 35 35
9 10 11 11 12 12 12 13 13 13 13 13 12 11 10 9 8 7 5 4 4 5 5 5 6 9 12 12 11 12 13 13 13 13 14 15 16 17 18 19 19 19 19 20 21 21 21 21 21 21 20 21 24 25 26 27 28 28 28 28 28 28 29 28 28 28 29 29 30 31 33 35 36 37
6 7 7 8 9 9 9 10 10 10 10 9 9 8 8 8 8 7 7 6 5 5 5 6 7 9 11 11 12 13 14 14 14 14 14 15 16 17 18 19 19 20 20 21 21 22 22 22 22 22 23 24 25 26 27 29 30 31 32 31 30 30 30 30 29 28 28 28 29 31 33 34 35 37
5 5 5 6 7 7 8 8 8 8 7 7 7 7 5 4 4 4 4 4 5 4 5 5 6 8 9 10 11 12 12 14 14 14 15 16 17 18 19 19 20 20 20 20 21 22 23 22 22 22 23 24 24 25 26 28 29 29 28 29 29 29 28 27 28 27 26 27 28 30 31 32 33 36
6 6 6 6 6 7 7 8 8 7 6 6 6 5 5 3 1 1 2 3 4 4 5 5 6 7 8 9 9 10 11 12 13 13 14 15 16 17 18 18 19 20 19 19 21 23 22 22 21 22 23 24 24 25 26 27 27 27 25 25 26 27 25 23 24 25 26 27 29 31 32 33 35 38
8 8 8 8 8 8 8 8 7 6 6 5 5 5 5 4 3 1 0 1 2 4 5 6 7 8 9 9 10 11 12 12 13 13 14 15 15 16 16 16 17 18 17 18 20 22 21 20 20 21 22 23 23 24 25 25 25 24 23 22 24 26 25 24 25 27 28 30 32 33 35 37 39 40
9 9 8 8 8 8 8 8 7 6 5 5 5 5 4 4 3 2 2 1 1 2 3 4 5 7 8 9 10 11 11 11 12 12 12 13 13 14 14 14 14 14 14 15 17 18 17 16 17 17 18 19 19 20 20 21 21 21 22 22 24 26 27 27 28 30 32 34 34 34 35 36 38 38
Wind_Direction
255 254 254 252 251 251 252 252 250 247 247 248 248 248 248 250 255 255 253 252 250 248 246 247 247 246 246 246 243 244 246 244 245 249 243 233 229 229 231 231 232 230 228 228 230 230 231 233 234 234 234 233 233 233 232 228 224 223 224 222 221 221 220 217 216 215 212 212 213 214 216 215 214 213
256 254 253 252 251 250 251 252 252 249 249 251 251 251 249 248 252 255 255 255 251 249 248 245 245 247 245 242 241 241 243 243 245 248 246 238 231 229 230 230 230 231 229 228 229 229 231 233 234 235 234 233 233 231 231 231 225 221 222 220 217 217 219 217 215 213 212 211 211 213 215 217 217 216
255 254 253 252 251 250 249 249 249 247 248 251 252 253 251 250 252 254 257 259 253 250 253 250 245 248 250 246 244 244 243 243 245 244 243 240 236 232 231 231 230 231 229 228 227 227 229 231 234 235 234 234 233 230 230 232 229 223 221 222 219 217 220 221 217 214 214 212 212 212 214 216 218 219
254 253 252 251 250 250 249 247 247 246 247 249 250 251 251 250 250 252 254 257 255 251 252 254 249 249 258 256 248 245 247 248 247 243 239 238 238 235 232 231 231 230 229 228 227 226 226 228 232 234 234 234 233 232 230 231 232 229 224 223 222 219 222 224 222 219 217 216 215 214 214 216 218 219
253 253 253 252 250 249 249 247 246 247 249 249 248 249 251 250 248 250 250 252 255 254 252 255 253 251 258 262 257 252 252 253 250 244 240 238 238 237 233 231 231 230 229 228 228 227 225 224 228 232 233 234 233 232 231 230 231 231 228 225 222 218 219 223 224 224 223 222 220 218 217 218 217 218
255 256 256 256 254 252 251 249 246 247 249 250 248 245 246 250 250 249 248 250 255 256 253 255 257 254 256 262 264 260 254 253 251 245 241 239 239 240 237 232 231 230 229 228 227 228 227 224 224 228 231 233 233 233 232 230 229 230 229 228 226 222 220 222 224 227 228 227 226 224 222 222 221 219
256 258 259 257 254 253 254 253 249 249 250 249 248 246 248 252 252 249 247 250 253 255 254 254 257 256 255 262 268 262 250 249 255 252 245 241 240 241 241 238 234 230 229 228 226 226 228 226 224 224 228 231 232 233 232 230 229 229 229 229 229 227 225 224 224 227 229 229 229 229 228 227 227 224
260 262 262 258 255 254 255 253 250 250 251 249 250 251 251 250 250 248 249 250 251 253 253 252 254 255 256 262 266 258 245 247 257 260 254 246 240 239 240 239 237 233 228 226 225 224 226 227 224 223 225 228 230 231 232 231 230 229 229 229 229 230 229 227 225 226 228 230 230 231 231 232 231 229
263 264 263 261 260 262 260 255 252 252 251 251 253 251 245 245 249 251 252 254 253 252 250 250 251 253 257 258 250 240 238 245 254 259 257 250 242 237 237 236 235 234 230 226 224 224 225 227 226 223 222 224 228 230 231 231 231 231 230 229 230 230 231 231 229 228 229 229 229 230 231 231 230 229
257 259 261 263 263 263 260 255 254 255 254 255 254 249 246 248 254 256 254 253 252 250 247 247 247 249 255 252 238 230 234 238 244 249 248 246 242 236 234 234 233 232 231 228 225 224 224 226 228 227 223 221 224 228 230 231 232 231 230 229 229 230 232 233 232 232 232 231 230 230 231 231 230 230
258 260 261 261 260 259 258 256 255 255 255 255 253 251 253 254 255 257 254 251 250 248 245 243 242 247 253 248 238 236 239 233 232 238 238 236 236 233 232 233 233 231 229 227 226 225 225 226 227 228 227 223 222 224 227 230 232 233 232 231 230 231 231 233 233 234 234 234 233 232 232 233 233 232
261 262 261 260 259 260 260 258 257 256 254 254 253 252 254 254 254 255 257 255 249 241 237 237 240 245 245 239 236 240 241 230 225 230 233 234 234 231 230 231 232 231 229 226 225 225 226 227 226 225 226 225 224 224 225 227 229 231 233 234 234 234 234 234 234 234 235 235 235 235 235 235 234 233
265 267 267 264 261 259 259 258 257 256 252 250 252 252 253 254 254 255 260 257 240 230 230 230 236 240 234 230 239 245 245 238 229 225 226 231 231 228 228 228 228 229 229 227 225 224 225 227 227 226 225 224 224 225 226 227 227 228 230 232 233 233 234 235 235 234 235 236 237 237 238 237 236 236
271 274 277 276 265 256 256 257 256 256 254 248 247 248 248 250 253 258 262 253 231 223 226 220 224 236 236 235 242 247 253 246 231 222 219 221 222 219 219 220 221 223 224 224 224 224 222 223 225 226 227 226 225 225 227 228 228 228 228 229 231 232 233 234 236 236 235 236 238 239 241 241 241 239
276 284 288 286 277 262 254 252 253 252 253 249 244 243 244 246 251 257 263 258 240 230 229 221 220 231 238 244 245 245 251 243 226 221 218 216 215 213 212 214 215 217 218 219 221 221 220 219 219 221 224 225 225 226 227 228 229 228 227 228 229 231 232 233 234 236 236 237 238 239 241 243 244 243
281 290 290 287 284 268 249 246 251 252 252 249 243 241 243 246 249 252 257 261 256 247 244 239 230 228 235 247 251 246 245 240 229 223 219 217 218 217 216 216 215 214 212 211 213 216 216 216 215 217 219 220 222 225 226 228 228 228 228 229 229 229 231 233 234 235 236 237 239 240 241 242 243 244
276 282 285 286 290 279 250 244 251 256 256 254 247 243 244 246 248 248 250 253 254 255 257 253 245 237 234 238 244 245 241 239 238 234 228 226 226 223 223 224 221 215 210 207 207 210 212 214 214 215 217 218 219 221 224 226 228 229 229 230 231 231 231 232 234 235 236 236 238 239 239 240 241 241
270 270 277 282 285 288 271 255 252 256 257 255 252 249 248 247 248 248 247 246 247 249 252 252 249 244 237 234 239 243 240 240 244 243 241 240 237 232 230 228 223 217 212 210 210 210 211 213 214 216 218 219 219 220 222 225 227 229 230 231 232 233 233 233 234 235 236 237 237 238 238 239 239 239
268 267 272 280 282 283 280 264 253 254 254 252 252 253 253 251 250 250 249 248 246 245 246 248 247 244 240 234 234 239 243 244 248 248 247 248 247 243 237 229 224 220 214 212 213 214 213 212 212 214 216 217 218 219 220 222 224 226 229 230 231 232 232 233 233 234 236 237 238 239 238 238 238 238
271 272 272 276 276 272 268 262 256 256 255 252 252 254 255 253 252 251 250 249 248 247 247 247 246 246 244 238 235 239 242 241 245 248 246 244 243 242 241 239 234 227 219 211 211 215 219 217 212 213 215 215 214 216 217 218 221 222 224 227 228 228 229 230 231 232 233 233 234 236 237 237 237 237
274 273 270 269 269 266 264 262 260 260 260 257 254 255 256 256 254 252 251 248 245 244 245 246 246 245 245 244 242 241 240 239 243 247 244 240 235 231 231 236 238 234 227 217 209 208 216 220 215 214 218 218 217 218 218 217 219 221 223 224 225 225 225 226 228 229 230 230 230 229 232 235 237 238
286 283 280 277 273 268 266 266 263 259 257 256 257 258 259 259 258 254 253 252 249 246 242 242 242 242 243 244 243 241 239 238 240 242 242 236 225 215 212 218 231 236 232 225 213 204 208 219 215 211 217 222 221 222 223 220 220 221 222 224 225 225 224 224 226 227 228 231 232 230 230 231 233 236
290 284 282 281 277 273 271 272 268 260 252 251 254 254 254 256 258 257 256 254 253 250 245 239 237 238 239 240 240 240 240 237 236 237 235 230 223 211 199 195 199 216 229 228 217 202 202 213 208 201 208 215 213 217 222 223 221 222 223 224 224 225 224 223 224 223 222 226 231 232 232 233 232 233
280 275 273 273 272 272 271 269 265 259 253 251 253 251 248 247 248 255 259 256 252 250 249 244 239 237 238 239 238 237 236 235 234 231 225 224 223 211 199 196 197 203 220 229 220 204 200 205 204 203 209 212 210 214 220 223 223 222 222 224 224 225 225 224 224 221 217 219 223 225 226 229 230 232
274 272 271 271 269 267 269 270 267 261 255 252 252 252 249 244 242 245 253 257 254 250 247 246 242 238 237 237 236 234 232 232 233 231 227 225 225 218 208 199 199 205 217 233 227 208 200 202 207 209 210 207 211 221 223 224 224 222 222 224 225 225 225 225 226 222 217 215 217 218 219 220 225 231
272 270 271 273 271 267 267 269 268 265 260 254 250 250 250 246 242 240 242 248 251 248 244 242 239 236 234 233 233 231 229 228 230 232 231 228 226 226 220 205 197 204 216 233 233 207 201 207 214 214 208 197 199 215 223 225 226 223 224 227 229 230 230 228 227 227 222 218 215 214 214 212 215 226
282 278 274 271 269 268 268 266 264 262 259 256 252 251 250 248 244 240 238 241 243 244 241 237 234 233 233 232 231 229 227 227 229 232 233 231 228 227 224 212 202 200 208 226 234 209 202 211 220 221 214 205 204 209 213 219 223 221 223 228 232 236 239 238 235 234 231 227 223 219 215 210 208 217
297 289 283 279 275 272 270 268 265 261 254 248 248 249 247 246 245 241 237 237 239 240 238 232 228 229 231 231 231 232 233 232 232 232 232 232 230 228 223 214 206 200 200 213 224 213 204 214 224 225 217 213 215 216 215 217 222 224 223 226 231 236 240 243 244 242 239 235 232 228 223 217 211 212
307 296 291 291 290 285 282 281 277 269 259 248 244 247 246 242 239 237 233 233 235 235 233 230 226 227 230 230 229 232 234 231 229 228 228 226 225 226 225 218 211 207 204 206 213 212 206 214 224 225 218 214 216 219 222 226 231 233 230 230 233 235 236 239 242 244 244 243 240 237 233 228 222 219
313 305 300 299 300 298 297 298 295 281 268 257 248 246 246 241 236 235 231 228 230 231 230 230 229 228 230 229 225 226 230 229 225 225 227 224 220 222 226 222 217 215 213 212 215 217 211 212 217 217 214 214 212 212 217 227 235 237 235 237 238 236 233 234 236 239 242 244 245 244 242 239 236 232
335 324 318 312 308 303 296 307 319 303 280 271 258 249 249 246 242 238 233 228 227 227 226 228 230 228 225 223 222 222 225 224 220 221 225 224 221 222 225 223 220 221 222 220 220 218 214 213 216 215 214 216 217 218 220 227 235 239 239 239 242 242 241 238 237 237 238 240 243 245 244 244 244 243
356 345 341 336 317 293 268 273 289 281 277 284 268 251 252 250 239 232 229 227 224 221 219 221 225 225 221 220 223 224 222 220 221 224 226 224 222 222 223 221 221 223 223 219 216 215 215 216 219 220 221 222 223 224 226 230 235 240 241 238 237 243 249 249 247 245 241 239 242 244 244 244 243 244
355 345 341 341 334 316 288 279 283 279 283 286 254 237 244 241 223 219 221 221 219 215 212 212 215 219 219 219 221 218 212 213 220 225 226 224 221 219 219 221 222 221 217 213 211 212 216 221 224 226 228 230 232 233 235 237 235 235 238 239 239 244 251 253 252 249 245 242 243 244 245 246 244 243
351 351 348 337 339 340 320 298 292 285 291 295 248 220 203 180 191 203 211 214 215 211 204 204 210 213 213 214 214 206 199 207 220 226 226 224 221 220 220 221 220 217 215 217 218 218 221 225 228 230 231 233 238 241 242 242 241 238 241 248 250 252 254 254 252 248 246 246 247 247 247 247 246 245
9 26 27 19 15 12 3 345 311 266 257 280 242 214 203 183 172 180 193 198 200 202 200 200 205 208 210 213 208 198 194 207 220 225 223 220 217 219 224 223 219 219 224 231 233 231 230 230 231 233 235 236 240 243 242 241 243 245 247 251 254 255 256 255 254 251 250 250 251 250 251 251 250 249
40 48 46 46 45 41 39 38 41 54 100 216 205 196 197 191 176 179 185 177 175 186 194 196 199 204 208 210 206 201 206 218 223 222 222 219 214 216 221 220 217 219 227 236 241 241 242 240 238 238 242 243 245 247 247 245 245 247 248 250 254 257 258 259 257 254 253 253 254 254 254 254 254 254
57 59 57 54 52 50 48 48 50 56 61 79 156 168 176 180 181 192 192 183 183 190 194 196 201 203 202 204 208 212 217 221 221 221 221 217 216 219 223 225 225 227 231 237 242 245 247 247 242 240 243 246 248 251 252 251 248 247 247 251 256 259 261 261 260 258 257 256 256 257 257 258 259 260
58 60 62 60 56 54 52 52 55 59 63 75 102 133 164 186 190 189 192 198 203 203 200 204 209 208 205 208 213 217 219 220 222 225 222 215 213 218 223 227 231 234 236 238 239 240 241 240 238 237 240 244 247 250 253 254 254 252 251 253 257 260 261 262 262 262 262 261 261 261 262 262 262 263
54 54 59 59 55 53 52 51 52 56 60 67 77 89 109 142 162 171 181 195 197 194 198 207 213 210 210 211 213 218 226 231 233 233 231 224 220 220 224 228 231 234 237 238 238 238 240 241 242 243 243 245 249 252 253 256 260 262 261 259 259 261 262 264 265 265 265 266 266 266 264 264 264 263
48 49 49 47 45 43 41 41 42 44 49 55 62 71 81 92 105 118 130 147 164 176 188 199 206 208 210 214 218 224 230 235 237 235 234 233 231 231 233 237 241 242 244 246 246 247 249 250 251 253 253 254 256 258 258 259 260 263 263 262 262 264 266 267 267 266 266 265 265 265 263 262 262 263
35 35 31 28 27 24 22 25 27 29 33 38 43 52 66 76 88 100 110 121 133 150 170 185 196 203 209 218 224 225 226 228 229 229 230 231 233 236 239 242 246 247 248 250 252 253 254 254 255 256 256 256 257 258 259 258 259 261 263 263 262 262 264 265 265 265 264 262 261 260 260 261 262 262
23 22 16 11 10 8 6 7 11 16 24 28 27 30 40 57 79 98 115 131 143 156 172 186 197 205 210 217 221 222 224 226 227 229 232 233 235 237 239 241 243 244 245 248 250 252 252 253 253 253 253 254 254 254 255 256 258 260 263 264 263 261 260 261 262 261 261 260 259 259 261 263 264 264
28 21 14 7 1 356 353 351 354 3 10 17 24 30 29 27 44 134 171 176 179 188 197 204 212 220 224 225 226 227 229 231 232 234 235 236 238 238 238 239 241 242 243 244 247 250 252 253 253 253 254 254 253 252 253 255 257 258 260 263 266 265 262 259 259 259 259 260 260 262 263 264 265 266
19 8 2 356 352 350 350 349 352 356 357 4 20 31 33 34 38 45 147 206 208 209 213 219 224 229 232 233 235 236 238 239 240 242 241 241 243 244 244 244 246 247 246 246 250 254 256 256 256 254 253 252 251 251 253 255 256 257 258 260 264 267 266 263 261 261 262 262 262 264 265 266 266 268
8 0 354 346 342 343 344 346 352 355 355 2 11 12 13 22 30 38 48 28 261 238 233 234 233 233 235 235 234 237 240 242 244 245 245 245 245 245 247 249 250 250 248 246 249 254 255 252 250 248 247 248 248 249 251 254 254 255 256 256 259 264 267 268 268 269 269 268 268 268 268 268 268 269